COSMOS 2476 (744)

Last updated on Jan. 18, 2020, 4:38 a.m. UTC

1 37867U 11064A   20017.65662936  .00000049  00000-0  00000+0 0  9998
2 37867  64.5165 152.2973 0017916 233.9217 303.2608  2.13101912 63898
UTC
Height (km)
Latitude
Longitude
Inclination
Orbital Period
UTC large
Height (km)
Speed (km/s)
/
Latitude / Longitude
Inclination (degrees)
Orbital Period (minutes)
Azimuth
Elevation
Range (km)
Doppler Factor
iOS Compass Heading
iOS Angle

Next 30 passes for location: Hong Kong

Rise time Rise Azimuth (degrees) Set time Set Azimuth (degrees) Duration Max altitude (degrees)

No matching passes for this satellites